Theta_e
337 339 337 338 338 335 340 335 329 336 337 329 328 331 331 331 331 329 330 330 330 329 329 330 335 337 338 337 337 338 339 336 336 340 343 343 341 334 333 332 333 335 333
337 339 338 338 336 338 339 340 337 340 336 329 333 332 334 338 340 339 330 328 327 326 329 329 331 335 336 337 337 337 338 337 339 341 342 342 340 333 332 334 337 337 333
336 338 338 337 337 339 341 342 340 340 333 334 333 333 339 339 339 336 332 338 342 328 337 342 329 329 333 337 337 336 339 340 338 339 338 337 333 334 334 335 336 333 331
337 337 338 338 339 341 341 340 340 337 335 337 336 338 341 340 340 337 341 339 339 340 331 329 335 327 329 334 337 343 345 345 340 339 338 332 333 336 333 324 328 334 335
337 337 339 339 341 340 338 335 333 332 337 337 339 340 339 338 338 333 337 335 338 338 331 329 333 333 332 336 342 345 344 346 344 338 334 336 336 337 328 332 330 334 336
338 339 340 341 340 332 330 332 334 336 338 337 337 341 336 341 334 335 336 337 335 334 333 329 328 332 336 340 343 344 343 344 343 338 339 339 339 333 329 332 327 333 335
339 341 341 337 337 338 339 335 338 338 340 337 339 335 341 335 331 337 338 338 336 332 330 328 330 333 337 341 344 343 343 343 343 336 336 335 332 338 331 337 335 337 331
341 341 336 333 340 339 337 338 337 339 338 339 336 337 334 331 335 336 337 340 334 331 329 327 334 340 342 344 342 341 342 341 338 334 333 330 331 330 336 332 337 325 328
340 334 333 338 340 340 339 337 338 339 338 336 330 330 332 333 334 336 337 339 333 330 329 328 341 343 344 345 343 344 343 336 333 332 333 333 336 339 336 328 329 335 329
340 330 331 334 336 338 342 337 338 338 336 328 330 332 335 336 336 335 336 337 333 334 330 329 339 342 343 345 344 344 344 343 341 333 334 333 330 326 331 335 337 330 330
332 331 332 335 335 335 337 338 337 335 327 331 339 339 339 339 339 339 336 337 334 332 329 331 337 341 342 343 341 343 343 344 336 332 332 332 332 331 335 333 332 332 333
332 332 332 332 334 338 338 338 334 331 334 342 339 338 337 338 339 339 336 336 335 334 333 337 339 341 341 342 343 341 343 343 333 332 331 331 331 332 332 329 331 331 336
330 331 332 332 335 337 337 334 338 341 341 345 345 340 338 338 339 338 339 341 340 340 339 340 341 342 344 344 343 342 343 336 329 326 329 328 328 331 332 331 333 332 330
333 333 333 335 334 336 334 333 337 341 340 343 345 344 343 343 344 341 340 342 341 339 337 337 340 341 342 343 343 343 341 339 335 329 329 328 325 325 326 327 328 328 327
341 339 340 336 339 336 339 338 342 343 343 343 344 342 344 344 345 344 345 343 342 342 341 340 342 341 342 343 343 343 343 341 338 334 329 328 328 331 327 323 325 326 328
342 342 343 340 339 339 343 344 345 344 345 345 344 341 344 344 343 342 343 344 342 343 341 342 340 343 343 342 340 342 342 341 341 341 341 338 337 331 328 327 324 323 323
342 343 343 339 346 343 344 344 346 344 346 345 343 341 344 346 345 342 343 344 343 342 343 341 342 341 342 342 342 341 340 340 342 342 340 342 342 341 336 334 332 331 329
342 343 342 343 344 342 343 345 347 347 346 344 345 344 345 345 344 345 343 343 343 344 341 342 342 341 342 343 342 342 340 340 342 341 341 339 340 339 338 337 336 335 334
341 344 343 342 341 344 344 346 347 346 346 345 346 343 345 345 344 344 342 339 339 338 340 341 340 342 341 341 342 341 340 341 340 339 340 339 339 339 338 341 340 340 337
343 343 343 339 338 342 344 346 347 347 346 347 346 345 346 342 342 344 344 340 342 342 340 339 341 342 341 341 341 341 340 340 340 340 340 339 340 339 340 339 340 338 333
343 343 343 341 340 345 342 344 345 346 345 347 346 348 344 347 346 344 343 342 343 343 339 339 340 341 339 340 341 342 342 341 341 341 340 340 340 340 341 340 336 334 334
343 342 342 340 339 344 343 342 342 345 346 347 346 350 343 346 346 345 342 342 342 341 342 341 339 342 338 340 341 339 337 338 339 339 341 341 340 340 341 341 341 338 332
341 340 340 340 339 342 343 342 345 345 346 347 348 349 346 347 342 345 342 344 344 343 340 338 338 342 338 338 337 337 336 338 341 341 340 340 340 339 342 341 341 342 341
341 340 340 341 340 338 341 340 342 345 346 345 347 347 346 348 341 346 347 346 344 342 338 338 341 340 337 340 339 339 340 342 341 340 339 341 341 339 341 340 342 342 341
341 341 341 341 340 337 341 337 341 346 344 346 347 346 347 346 346 344 343 346 345 344 338 340 341 341 339 340 338 340 339 340 341 342 342 341 340 341 341 341 341 339 337
342 341 341 341 341 338 342 339 345 346 347 348 346 347 349 344 348 347 340 341 342 347 340 338 342 344 340 342 339 341 339 344 343 343 344 344 342 341 341 341 343 343 341
Wind_Speed
28 26 26 23 20 19 17 17 17 17 15 14 15 15 13 12 11 12 11 9 9 8 9 11 12 12 12 12 13 14 15 14 14 16 16 16 18 16 15 18 18 18 18
32 27 26 23 20 18 16 15 17 15 13 13 15 14 14 14 13 13 11 11 12 11 12 12 12 14 13 14 14 14 15 15 15 13 14 15 14 14 15 18 18 17 18
31 27 25 22 20 17 16 16 16 13 12 13 14 13 13 13 13 12 14 15 12 15 15 13 12 14 15 16 16 15 17 17 15 14 13 14 15 15 15 17 16 17 17
31 27 23 21 19 16 15 15 15 13 12 13 13 13 13 13 13 13 13 14 15 15 15 14 14 16 17 17 17 17 18 16 16 14 12 14 15 15 15 15 16 17 17
29 25 21 20 17 16 15 14 12 12 13 12 12 12 12 12 13 13 14 15 13 14 14 15 16 18 19 19 18 16 15 15 14 13 12 14 16 15 14 16 15 16 16
28 23 21 19 17 15 14 13 12 13 13 13 12 12 12 12 13 14 14 15 14 15 15 16 17 20 21 18 16 20 15 14 12 12 13 14 15 13 13 14 14 16 13
27 22 21 18 16 16 14 14 14 14 14 14 14 13 12 13 15 15 15 14 15 16 16 17 19 21 20 18 17 18 14 12 9 8 11 12 13 13 14 14 14 14 11
26 23 21 18 17 16 16 16 15 15 15 15 14 13 13 15 15 14 14 14 15 17 18 19 22 22 20 19 17 17 15 12 8 8 10 13 13 12 13 12 12 11 11
21 22 21 19 17 16 17 16 16 16 17 15 14 14 16 15 14 14 15 16 17 18 19 22 23 22 22 20 18 15 15 13 10 9 10 12 13 12 10 11 11 12 11
21 19 20 20 19 18 17 17 18 18 18 17 18 17 17 17 17 16 16 17 18 17 17 21 21 21 20 18 14 13 11 10 8 7 9 10 11 10 10 10 10 10 11
24 22 20 20 19 17 18 19 20 19 20 21 21 20 20 18 17 17 18 18 17 18 17 19 20 17 15 16 13 14 12 6 5 7 8 8 9 9 9 8 8 8 8
26 24 21 19 19 18 20 21 21 20 23 20 21 22 19 17 17 16 18 20 18 20 19 20 18 16 11 9 15 14 11 6 4 5 7 7 8 8 8 7 7 7 7
25 24 21 20 19 19 22 23 22 23 21 18 17 18 19 17 17 12 16 16 17 17 16 17 14 14 11 8 10 8 10 8 7 6 6 6 6 6 6 6 6 5 6
26 25 22 19 21 20 22 25 21 18 17 15 14 14 15 13 12 11 12 10 12 15 16 17 15 12 9 15 9 11 10 9 9 8 8 6 6 6 5 5 4 4 5
26 27 23 23 22 21 23 23 20 18 16 16 13 12 13 11 9 8 6 6 9 12 14 16 17 14 15 11 14 12 11 12 14 11 9 8 6 6 6 4 3 3 3
27 27 23 23 23 24 21 19 17 19 17 15 12 11 11 8 10 8 10 7 11 9 12 12 12 13 13 13 11 10 10 11 11 11 10 11 9 7 6 5 4 3 3
29 28 27 23 20 20 19 19 17 15 13 15 12 10 14 12 12 10 8 9 10 10 12 10 13 15 12 12 9 8 7 6 6 6 8 8 10 11 8 5 5 4 3
34 32 28 27 23 23 22 19 14 15 15 14 14 7 16 10 10 10 9 13 12 12 10 9 11 10 13 15 10 6 6 6 5 7 6 7 7 10 7 7 5 4 4
32 34 28 30 25 23 18 17 20 17 15 13 11 7 10 8 8 12 12 13 14 15 13 9 8 5 10 11 10 7 5 6 6 6 6 10 9 8 11 6 6 6 5
36 33 28 27 29 25 25 20 21 14 15 14 11 9 8 9 12 12 16 16 13 10 11 13 11 6 10 10 9 8 5 3 2 2 4 4 5 5 9 8 4 3 5
38 34 30 27 31 28 26 22 23 20 19 15 12 10 8 11 9 14 14 13 10 14 14 16 10 8 11 12 8 7 8 7 6 5 4 1 1 2 6 8 8 2 3
40 35 31 25 26 31 27 24 27 23 17 15 14 12 9 9 8 11 12 14 13 15 13 13 13 8 12 13 12 6 4 5 9 10 9 6 1 3 5 7 9 11 5
42 38 33 27 26 29 29 28 25 23 19 19 18 15 13 10 11 11 14 14 14 13 13 14 11 9 12 10 9 4 5 3 5 5 4 5 4 4 5 5 7 7 10
43 38 34 31 29 27 32 28 30 26 26 23 18 17 13 13 10 12 12 10 13 12 15 15 12 11 12 10 7 7 3 3 1 3 3 6 6 4 4 5 5 6 7
45 42 38 34 31 28 28 31 32 27 25 21 20 15 14 14 11 10 11 12 15 13 15 17 15 12 12 9 9 6 4 4 2 1 3 5 8 5 2 4 6 7 6
47 44 41 37 34 30 31 31 35 30 26 23 22 20 17 16 17 12 11 10 16 13 14 18 17 13 13 10 9 6 2 2 3 5 5 4 6 4 3 2 4 6 7
Wind_Direction
156 147 146 142 133 128 124 121 126 124 117 116 120 121 119 117 116 115 113 115 115 116 124 130 129 128 124 116 110 105 102 100 104 107 103 98 93 88 97 98 97 98 95
148 149 149 144 134 132 129 134 133 122 114 116 119 116 114 112 114 110 103 103 101 107 113 117 135 132 128 122 117 113 110 109 108 106 105 106 98 90 99 100 98 100 96
149 150 148 144 140 137 131 132 139 130 120 117 114 115 111 109 109 103 101 104 102 98 111 103 114 131 131 126 123 119 116 108 103 106 106 104 97 100 102 100 96 101 96
150 150 149 146 142 140 136 133 134 130 122 118 114 114 112 109 104 104 104 105 105 104 100 110 110 122 129 127 125 123 119 110 99 97 106 105 106 105 104 100 98 101 96
151 151 149 146 145 142 140 137 136 131 126 123 120 118 113 109 110 108 112 107 108 106 102 103 116 118 122 125 127 119 127 119 110 94 107 108 105 101 98 102 103 101 94
151 154 150 148 145 145 143 137 136 132 133 128 125 119 112 111 110 112 110 111 105 106 104 107 116 122 124 119 119 116 116 107 98 100 112 110 104 107 101 99 100 102 100
152 153 151 151 148 143 145 140 138 135 131 128 123 117 116 113 114 112 109 112 106 100 104 114 118 120 119 114 109 114 114 110 108 107 115 116 109 106 109 101 99 101 94
152 154 151 150 149 148 141 142 138 135 131 125 121 116 114 117 114 110 110 109 105 101 104 117 121 118 114 118 112 104 100 98 102 108 117 115 111 108 107 108 109 101 96
153 157 154 151 149 147 144 140 136 130 126 121 114 114 117 112 111 114 109 110 108 107 110 122 128 123 117 117 118 110 102 97 101 109 116 116 117 118 120 112 108 101 94
161 163 157 155 152 150 144 143 134 130 124 118 114 113 111 109 110 110 107 113 115 114 119 127 135 131 132 128 123 114 116 102 64 98 120 122 125 123 118 110 106 104 98
162 164 161 157 153 151 143 140 134 133 126 123 118 110 104 105 111 109 109 113 110 116 120 126 129 131 130 126 122 123 109 106 50 118 124 126 124 123 123 125 114 106 100
167 165 163 160 154 151 143 140 140 136 131 123 121 113 106 107 105 107 111 113 108 108 120 122 129 133 127 102 129 107 121 113 100 112 121 124 125 128 129 126 122 116 107
167 165 163 159 152 151 144 143 141 135 133 126 128 124 116 110 106 104 111 109 103 111 127 126 132 126 128 127 147 113 101 88 87 91 101 113 123 128 125 126 128 123 112
165 163 154 159 146 151 151 148 143 140 133 139 141 140 131 122 118 123 117 112 121 113 105 120 148 117 109 124 142 111 105 90 75 89 95 95 105 115 117 113 117 113 112
161 157 155 154 148 153 153 149 149 143 136 134 142 152 146 134 145 155 150 120 140 126 112 112 134 134 119 118 117 107 89 90 84 83 90 98 96 94 91 90 94 100 102
174 168 164 163 156 155 163 165 161 148 147 155 157 157 146 161 165 138 155 135 135 136 124 117 138 137 126 120 114 106 105 96 79 69 74 79 78 84 84 77 71 56 53
183 175 174 167 172 171 171 166 179 172 166 167 163 161 167 182 171 136 138 159 161 138 135 118 128 137 135 138 122 106 94 111 111 87 70 84 75 66 59 77 81 74 54
189 184 176 172 177 176 177 170 196 198 169 166 159 165 186 192 160 152 154 172 157 155 154 125 126 131 134 137 148 143 115 125 99 91 63 65 73 57 59 81 89 80 70
188 180 176 181 183 182 189 187 182 177 179 178 176 190 177 167 165 162 156 156 151 162 165 153 143 141 142 150 159 150 136 120 93 99 86 88 85 71 59 81 67 57 39
185 183 179 181 190 188 165 168 180 188 173 176 176 170 152 156 178 181 167 156 153 157 177 169 147 157 162 167 166 173 159 169 136 103 82 86 85 69 49 48 40 45 51
188 185 185 183 190 192 180 186 185 180 185 197 186 177 165 162 151 169 176 168 178 172 161 164 158 139 155 179 168 205 217 219 242 267 266 296 141 58 42 34 41 45 40
189 191 189 192 192 198 192 196 197 191 195 198 196 190 180 172 167 182 181 169 159 174 171 171 170 159 165 167 178 188 214 212 244 257 268 238 247 261 11 22 34 44 43
194 193 197 199 198 199 199 197 198 195 195 194 195 190 190 170 170 168 162 175 175 180 190 171 167 163 161 167 186 197 181 179 202 200 228 203 241 311 331 336 3 20 45
197 199 201 202 205 206 204 205 202 200 202 206 197 190 194 186 176 176 180 190 174 183 185 182 179 175 176 175 178 187 192 176 200 197 210 207 274 260 295 7 6 13 28
197 200 204 209 212 215 205 205 199 204 204 206 207 197 200 189 189 197 196 192 193 182 183 193 191 183 181 195 191 199 171 132 73 313 247 228 221 232 222 42 38 29 26
200 203 206 209 214 216 209 205 203 201 202 212 210 205 202 194 204 212 190 191 193 194 190 189 192 191 189 195 188 197 182 125 44 63 26 237 230 230 215 241 28 40 36